Location: Gro�sch�nbrunn
(49.5760°N, 11.8868°E)
Time: 13:11:58
(UTC+00:00)

CZ-4C R/B - Pass Details

Date: 18 September 2020
Orbit: 627 x 1375 km, 63.4° (Epoch: 21 October)

Event Time Altitude Azimuth Distance (km) Brightness Sun altitude
Exits shadow 23:01:58 27° 29° (NNE) 1,671 4.1 -39.0°
Drops below altitude 10° 23:04:59 10° 40° (NE) 2,733 5.3 -39.0°
Sets 23:07:54 0° 44° (NE) 3,812 6.1 -39.0°
